FENGYUN 1C DEB

Satellite information

Favourite Embed

Satellite Type and Status

DEBRISIN ORBIT

Key statistics

Satellite FENGYUN 1C DEB at a glance.

Uptime

9663

Days in orbit

Revolutions

≈ 14.3

Per day

Orbit

SSO

Sun Synchronous Orbit

Inclination

98.4

Latest

Satellite identification and parameters

Extended collection of information and parameters for FENGYUN 1C DEB.

Object identification

Identified? True

Debris? True

Object name: FENGYUN 1C DEB

International designator: 1999-025RH

Object number (NORAD): 30104

Object ID (CCSDS): 30104

Country: PEOPLES REPUBLIC OF CHINA (PRC)

Current information (Y/N): Y

RCS size: SMALL

Orbital parameters

Period: 101.023 minutes

Inclination: 98.3636 deg

SMA: 7185.213 km

Apoapsis: 859.734 km

Periapsis: 754.422 km

RAAN: 135.2294 deg

Eccentricy: 0.00732837

Argument of periapsis: 258.4163 deg

Mean anomaly: 223.8658 deg

Mean motion: 14.25421345 rev/day

Mean motion (dot): 0.00001996 rev/day2

B* drag term: 0.0008397857 1/REarth

Two-line elements (TLE)

Creation date: Oct. 23, 2025, 2:46 a.m.

Reference frame: TEME

Reference center: EARTH

Epoch: Oct. 22, 2025, 7:49 p.m. UTC

TLE line 0: 0 FENGYUN 1C DEB

TLE line 1: 1 30104U 99025RH 25295.82571829 .00001996 00000-0 83979-3 0 9992

TLE line 2: 2 30104 98.3636 135.2294 0073284 258.4163 223.8658 14.25421345971679

Live tracking on map

Real-time ground track for satellite FENGYUN 1C DEB.

In-orbit conjunctions

A list of the most updated potential collisions computed for object FENGYUN 1C DEB.

Target Orbit TCA Probability of collision Miss distance Type
CZ-6A DEB LEO 2024-11-13 08:51:07 0.0009075974 232.0 (m) DEBRIS
METEOR 2-8 DEB LEO 2024-11-10 21:13:12 0.0006865257 166.0 (m) DEBRIS
ARIANE 1 DEB SSO 2024-09-24 07:00:27 0.001644923 36.0 (m) DEBRIS
CZ-2D DEB SSO 2024-07-16 12:13:36 0.0001170273 88.0 (m) DEBRIS

Associated space launch

Chinese polar orbiting meteorological satellite

FENGYUN 1C DEB was lifted into orbit during the mission ‘Long March 4B | Feng Yun 1C’, on board a Long March 4B space rocket.

The launch took place on May 10, 1999, 1:33 a.m. from Launch Complex 7.

For more information about the launch, click the button.

Launch to space Long March 4B | Feng Yun 1C
Long March 4B | Feng Yun 1C

Agency: N/A

Status: Launch Successful

Launch date: May 10, 1999, 1:33 a.m. UTC

Rocket: Long March 4B

Launch pad: Launch Complex 7

Location: Taiyuan Satellite Launch Center, People's Republic of China

...

Latest news about this satellite

There are no fresh news available about this satellite. Check back as we update our databases every day.


Newsletter sign-up

Weekly statistics, charts and insights to help you stay on top of the space industry.